FENGYUN 1C DEB

Satellite information

Favourite Embed

Satellite Type and Status

DEBRISIN ORBIT

Key statistics

Satellite FENGYUN 1C DEB at a glance.

Uptime

9662

Days in orbit

Revolutions

≈ 14.1

Per day

Orbit

SSO

Sun Synchronous Orbit

Inclination

102.1

Latest

Satellite identification and parameters

Extended collection of information and parameters for FENGYUN 1C DEB.

Object identification

Identified? True

Debris? True

Object name: FENGYUN 1C DEB

International designator: 1999-025CAK

Object number (NORAD): 31629

Object ID (CCSDS): 31629

Country: PEOPLES REPUBLIC OF CHINA (PRC)

Current information (Y/N): Y

RCS size: SMALL

Orbital parameters

Period: 101.842 minutes

Inclination: 102.1367 deg

SMA: 7224.029 km

Apoapsis: 924.065 km

Periapsis: 767.723 km

RAAN: 320.9984 deg

Eccentricy: 0.01082102

Argument of periapsis: 160.7602 deg

Mean anomaly: 199.7692 deg

Mean motion: 14.13948314 rev/day

Mean motion (dot): 0.00007217 rev/day2

B* drag term: 0.0036260527 1/REarth

Two-line elements (TLE)

Creation date: Oct. 21, 2025, 3:26 a.m.

Reference frame: TEME

Reference center: EARTH

Epoch: Oct. 20, 2025, 7:23 p.m. UTC

TLE line 0: 0 FENGYUN 1C DEB

TLE line 1: 1 31629U 99025CAK 25293.80795496 .00007217 00000-0 36261-2 0 9992

TLE line 2: 2 31629 102.1367 320.9984 0108210 160.7602 199.7692 14.13948314936988

Live tracking on map

Real-time ground track for satellite FENGYUN 1C DEB.

In-orbit conjunctions

A list of the most updated potential collisions computed for object FENGYUN 1C DEB.

Target Orbit TCA Probability of collision Miss distance Type
SCOUT X-4 R/B LEO 2025-08-05 21:59:15 0.0002338723 137.0 (m) ROCKET BODY
CZ-6A DEB LEO 2024-11-18 17:21:01 0.0001614511 468.0 (m) DEBRIS
COSMOS 1190 LEO 2024-11-10 01:27:18 0.0009212538 435.0 (m) PAYLOAD

Associated space launch

Chinese polar orbiting meteorological satellite

FENGYUN 1C DEB was lifted into orbit during the mission ‘Long March 4B | Feng Yun 1C’, on board a Long March 4B space rocket.

The launch took place on May 10, 1999, 1:33 a.m. from Launch Complex 7.

For more information about the launch, click the button.

Launch to space Long March 4B | Feng Yun 1C
Long March 4B | Feng Yun 1C

Agency: N/A

Status: Launch Successful

Launch date: May 10, 1999, 1:33 a.m. UTC

Rocket: Long March 4B

Launch pad: Launch Complex 7

Location: Taiyuan Satellite Launch Center, People's Republic of China

...

Latest news about this satellite

There are no fresh news available about this satellite. Check back as we update our databases every day.


Newsletter sign-up

Weekly statistics, charts and insights to help you stay on top of the space industry.